{"data":{"norad_id":45408,"epoch":"2026-09-20T06:00:02.000160Z","epoch_age_seconds":39788,"freshness":"FRESH","line1":"1 45408U 20019BA  26263.25002315  .01065342  55923-3  22545-2 0  9998","line2":"2 45408  53.0284 243.3694 0001892  87.4400  77.1129 15.98298116  6035","mean_motion":15.98298116,"eccentricity":0.0001892,"inclination_deg":53.0284,"raan_deg":243.3694,"arg_perigee_deg":87.44,"mean_anomaly_deg":77.1129,"bstar":0.0022545,"rev_number":603,"period_min":90.09583291031,"perigee_km":277.8807791615,"apogee_km":280.39989290546,"semimajor_km":6657.2773360335,"source":"CELESTRAK","updated_at":"2026-09-20T09:00:38.234526Z"}}